[Iaude] MPEC P79: 2024 PG1 [a=2.05,e=0.53,i=7.3,H=24.1]

mpec at cfa.harvard.edu mpec at cfa.harvard.edu
Tue Aug 6 14:47:51 EDT 2024


M.P.E.C. 2024-P79                                Issued 2024 August 6, 18:46 UT

     The Minor Planet Electronic Circulars contain information on unusual
         minor planets, routine data on comets and natural satellites,
         and occasional editorial announcements.  They are published
    on behalf of Division F of the International Astronomical Union by the
          Minor Planet Center, Smithsonian Astrophysical Observatory,
                          Cambridge, MA 02138, U.S.A.
			  
             Prepared using the Tamkin Foundation Computer Network

                              MPC at CFA.HARVARD.EDU
            URL https://www.minorplanetcenter.net/    ISSN 1523-6714

                                    2024 PG1                                    


Observations:
     K24P01G* C2024 08 03.39828720 09 04.410-23 07 30.30         19.89wXEP079F52
     K24P01G  C2024 08 03.40880820 09 09.748-23 08 04.83         20.06wXEP079F52
     K24P01G  C2024 08 03.41932920 09 15.094-23 08 39.30         19.97wXEP079F52
     K24P01G IC2024 08 03.93506020 13 50.69 -23 36 00.9          19.0 GVEP079L01
     K24P01G IC2024 08 03.93758520 13 51.96 -23 36 08.0          19.3 GVEP079L01
     K24P01G KB2024 08 03.98773120 14 17.57 -23 38 36.1          19.8 GXEP079I93
     K24P01G KB2024 08 03.99107220 14 19.18 -23 38 46.0          19.5 GXEP079I93
     K24P01G KB2024 08 03.99440120 14 20.86 -23 38 54.5          19.3 GXEP079I93
     K24P01G KB2024 08 04.23632 20 16 24.384-23 50 35.77         19.6 GVEP079734
     K24P01G KB2024 08 04.24752 20 16 29.604-23 51 08.14         19.8 GVEP079734
     K24P01G KB2024 08 04.25258 20 16 31.963-23 51 21.60         19.7 GVEP079734
     K24P01G KC2024 08 05.58774720 26 50.119-24 46 13.66         20.3 GVEP079474
     K24P01G KC2024 08 05.59150220 26 51.626-24 46 21.90         20.1 GVEP079474
     K24P01G KC2024 08 05.59525720 26 53.134-24 46 31.19         19.0 GVEP079474
     K24P01G  C2024 08 06.27263620 31 37.153-25 12 30.13         20.1 GVEP079H01
     K24P01G  C2024 08 06.27763520 31 38.994-25 12 40.25         20.5 GVEP079H01
     K24P01G  C2024 08 06.29096620 31 43.914-25 13 06.81         20.2 GVEP079H01
     K24P01G  C2024 08 06.30115420 31 47.670-25 13 27.25         20.1 GVEP079H01
     K24P01G KC2024 08 06.38269 20 32 23.68 -25 14 37.6          19.8 VqEP079E94
     K24P01G KC2024 08 06.39615 20 32 28.65 -25 15 06.3          19.8 VqEP079E94
     K24P01G KC2024 08 06.40981 20 32 33.73 -25 15 34.6          20.0 VqEP079E94

Observer details:
474 Mount John Observatory, Lake Tekapo.  Observers A. C. Gilmore, P. M.
    Kilmartin.  Measurer P. M. Kilmartin.  0.6-m f/6.3 Reflector + CCD.
734 Farpoint Observatory, Eskridge.  Observers D. Cromer, G. Hug, D. Goodin,
    R. Valentine, P. Lessig.  Measurer G. Hug.  0.69-m f/3.54 reflector + CMO.
E94 Possum Observatory, Gisborne.  Observer J. Drummond.  0.41-m f/4.5
    reflector + CCD.
F52 Pan-STARRS 2, Haleakala.  Observers J. Herman, T. Lowe, P. Minguez, A.
    Schultz, I. Smith.  Measurers K. Chambers, T. de Boer, J. Fairlamb, H.
    Gao, M. Huber, C.-C. Lin, E. Magnier, Y. Ramanjooloo, R. Wainscoat, R.
    Weryk.  1.8-m Ritchey-Chretien + CCD.
H01 Magdalena Ridge Observatory, Socorro.  Observers W. H. Ryan, E. V. Ryan.
    Measurer W. H. Ryan.  2.4-m f/8.9 Ritchey-Chretien + CCD.
I93 St Pardon de Conques.  Observer F. Losse.  0.40-m f/3.7 reflector + CMO.
L01 Visnjan Observatory, Tican.  Observer K. Korlevic.  1.0-m f/2.9 reflector
    + CCD.

Orbital elements:
2024 PG1                                                 Earth MOID = 0.0321 AU
Epoch 2024 Oct. 17.0 TT = JDT 2460600.5                 MPC                     
M  39.84012              (2000.0)            P               Q                  
n   0.33690692     Peri.  130.39547     -0.18943801     +0.97687054             
a   2.0454840      Node   128.40435     -0.93485967     -0.14855320             
e   0.5312750      Incl.    7.27117     -0.30025095     -0.15380473             
P   2.93           H   24.11          G   0.15           U   8                  
Residuals in seconds of arc
240803 F52  0.2+  0.0     240803 I93 (0.7+  1.4+)   240806 H01  0.1-  0.3-
240803 F52  0.1-  0.1+    240804 734  0.3+  0.2+    240806 H01  0.1-  0.3-
240803 F52  0.1-  0.0     240804 734  0.1+  0.3-    240806 H01  0.1-  0.1+
240803 L01 (1.6-  1.4-)   240804 734  0.0   0.5+    240806 H01  0.1-  0.1+
240803 L01 (1.0-  0.9-)   240805 474  0.5+  0.1+    240806 E94  0.2+  0.6+
240803 I93  0.2-  0.1+    240805 474  0.2+  0.1+    240806 E94  0.2-  0.1+
240803 I93  0.3-  0.1+    240805 474  0.1-  0.9-    240806 E94  0.1+  0.2+

Ephemeris:
2024 PG1                 a,e,i = 2.05, 0.53, 7                   q = 0.9588
Date    TT    R. A. (2000) Decl.     Delta      r    Elong.  Phase     V
2024 07 07    12 18 53.5 +32 11 52   0.1157  0.9808    68.8   104.9    23.3
...
2024 07 22    16 12 26.7 +11 06 11   0.04811 1.0369   114.6    63.0    19.8
...
2024 07 30    19 16 03.5 -17 00 11   0.06622 1.0779   160.5    18.3    19.3
...
2024 08 05    20 22 30.2 -24 23 17   0.09999 1.1126   168.4    10.6    20.0
2024 08 06    20 29 45.8 -25 01 51   0.1063  1.1187   168.4    10.5    20.2
2024 08 07    20 36 17.3 -25 34 36   0.1128  1.1248   168.2    10.6    20.3
...
2024 08 13    21 04 26.8 -27 31 29   0.1540  1.1630   165.7    12.4    21.1
...
2024 08 21    21 25 35.3 -28 19 37   0.2144  1.2172   161.8    15.0    22.0
...
2024 09 05    21 46 28.6 -27 46 01   0.3443  1.3251   153.4    19.9    23.4

A. U. Tomatic                (C) Copyright 2024 MPC           M.P.E.C. 2024-P79





More information about the Iaude mailing list